TimeEDT,TemperatureF,Dew PointF,Humidity,Sea Level PressureIn,VisibilityMPH,Wind Direction,Wind SpeedMPH,Gust SpeedMPH,PrecipitationIn,Events,Conditions,WindDirDegrees,DateUTC
12:15 AM,54.7,50.7,86,29.76,10.0,Calm,Calm,-,N/A,,Clear,0,2013-06-14 04:15:00
12:35 AM,54.7,50.5,86,29.76,10.0,Calm,Calm,-,N/A,,Clear,0,2013-06-14 04:35:00
12:55 AM,54.0,50.4,88,29.76,10.0,Calm,Calm,-,N/A,,Clear,0,2013-06-14 04:55:00
1:15 AM,54.0,50.7,89,29.75,10.0,Calm,Calm,-,N/A,,Clear,0,2013-06-14 05:15:00
1:35 AM,53.6,50.5,89,29.74,10.0,Calm,Calm,-,N/A,,Scattered Clouds,0,2013-06-14 05:35:00
1:55 AM,53.1,50.0,89,29.74,10.0,Calm,Calm,-,N/A,,Scattered Clouds,0,2013-06-14 05:55:00
2:15 AM,52.9,50.0,90,29.73,10.0,Calm,Calm,-,N/A,,Scattered Clouds,0,2013-06-14 06:15:00
2:35 AM,54.7,50.4,85,29.72,10.0,Calm,Calm,-,N/A,,Mostly Cloudy,0,2013-06-14 06:35:00
2:55 AM,53.2,49.5,87,29.72,10.0,Calm,Calm,-,N/A,,Mostly Cloudy,0,2013-06-14 06:55:00
3:15 AM,52.7,49.3,88,29.72,10.0,Calm,Calm,-,N/A,,Scattered Clouds,0,2013-06-14 07:15:00
3:35 AM,53.6,50.2,88,29.72,10.0,Calm,Calm,-,N/A,,Mostly Cloudy,0,2013-06-14 07:35:00
3:55 AM,52.7,49.3,88,29.72,10.0,Calm,Calm,-,N/A,,Scattered Clouds,0,2013-06-14 07:55:00
4:15 AM,52.7,49.3,88,29.72,10.0,Calm,Calm,-,N/A,,Clear,0,2013-06-14 08:15:00
4:35 AM,52.7,49.3,88,29.73,10.0,Calm,Calm,-,N/A,,Clear,0,2013-06-14 08:35:00
4:55 AM,52.5,48.9,88,29.74,10.0,Calm,Calm,-,N/A,,Clear,0,2013-06-14 08:55:00
5:15 AM,52.3,49.1,89,29.74,10.0,Calm,Calm,-,N/A,,Clear,0,2013-06-14 09:15:00
5:35 AM,52.9,48.9,86,29.74,10.0,Calm,Calm,-,N/A,,Clear,0,2013-06-14 09:35:00
5:55 AM,51.3,48.2,89,29.75,7.0,Calm,Calm,-,N/A,,Clear,0,2013-06-14 09:55:00
6:15 AM,50.9,48.2,90,29.75,1.5,Calm,Calm,-,N/A,,Mist,0,2013-06-14 10:15:00
6:35 AM,52.7,50.0,91,29.74,10.0,Calm,Calm,-,N/A,,Clear,0,2013-06-14 10:35:00
6:55 AM,53.6,50.4,89,29.75,10.0,Calm,Calm,-,N/A,,Clear,0,2013-06-14 10:55:00
7:15 AM,54.5,50.5,86,29.75,10.0,Calm,Calm,-,N/A,,Clear,0,2013-06-14 11:15:00
7:35 AM,54.5,50.5,86,29.75,10.0,Calm,Calm,-,N/A,,Clear,0,2013-06-14 11:35:00
7:55 AM,55.6,51.1,85,29.76,10.0,Calm,Calm,-,N/A,,Clear,0,2013-06-14 11:55:00
8:15 AM,57.2,51.4,81,29.76,10.0,Calm,Calm,-,N/A,,Clear,0,2013-06-14 12:15:00
8:35 AM,59.5,51.3,74,29.76,10.0,Calm,Calm,-,N/A,,Clear,0,2013-06-14 12:35:00
8:55 AM,60.8,51.1,70,29.76,10.0,Calm,Calm,-,N/A,,Clear,0,2013-06-14 12:55:00
9:15 AM,61.7,52.0,70,29.76,10.0,Calm,Calm,-,N/A,,Clear,0,2013-06-14 13:15:00
9:35 AM,63.7,52.7,67,29.76,10.0,NNE,3.5,-,N/A,,Clear,30,2013-06-14 13:35:00
9:55 AM,65.7,52.7,63,29.77,10.0,Calm,Calm,-,N/A,,Scattered Clouds,0,2013-06-14 13:55:00
10:15 AM,67.1,50.0,54,29.76,10.0,North,8.1,-,N/A,,Scattered Clouds,10,2013-06-14 14:15:00
10:35 AM,67.8,48.2,49,29.76,10.0,NNW,4.6,-,N/A,,Clear,330,2013-06-14 14:35:00
10:55 AM,68.2,47.7,48,29.77,10.0,NNE,3.5,-,N/A,,Scattered Clouds,20,2013-06-14 14:55:00
11:15 AM,69.6,46.6,44,29.77,10.0,North,10.4,17.3,N/A,,Scattered Clouds,10,2013-06-14 15:15:00
11:35 AM,70.0,46.6,43,29.76,10.0,NW,9.2,-,N/A,,Scattered Clouds,310,2013-06-14 15:35:00
11:55 AM,68.7,46.9,46,29.76,10.0,NNW,11.5,-,N/A,,Mostly Cloudy,340,2013-06-14 15:55:00
12:15 PM,69.1,44.8,42,29.76,10.0,North,8.1,17.3,N/A,,Scattered Clouds,10,2013-06-14 16:15:00
12:35 PM,70.7,45.9,41,29.76,10.0,North,9.2,17.3,N/A,,Scattered Clouds,350,2013-06-14 16:35:00
12:55 PM,70.9,43.3,37,29.76,10.0,NNW,9.2,-,N/A,,Clear,340,2013-06-14 16:55:00
1:15 PM,71.8,43.9,37,29.76,10.0,North,12.7,17.3,N/A,,Clear,360,2013-06-14 17:15:00
1:35 PM,72.0,43.5,36,29.76,10.0,North,9.2,-,N/A,,Clear,360,2013-06-14 17:35:00
1:55 PM,72.1,41.7,33,29.76,10.0,NW,8.1,-,N/A,,Clear,320,2013-06-14 17:55:00
2:15 PM,73.2,41.0,31,29.76,10.0,NNW,8.1,18.4,N/A,,Clear,340,2013-06-14 18:15:00
2:35 PM,73.0,39.7,30,29.76,10.0,NW,6.9,-,N/A,,Scattered Clouds,320,2013-06-14 18:35:00
2:55 PM,72.9,43.2,34,29.76,10.0,NW,10.4,16.1,N/A,,Scattered Clouds,310,2013-06-14 18:55:00
3:15 PM,74.1,44.4,35,29.76,10.0,NNW,11.5,18.4,N/A,,Scattered Clouds,330,2013-06-14 19:15:00
3:35 PM,73.8,44.1,34,29.76,10.0,NW,11.5,19.6,N/A,,Scattered Clouds,320,2013-06-14 19:35:00
3:55 PM,72.1,42.4,34,29.75,10.0,NNW,8.1,16.1,N/A,,Scattered Clouds,330,2013-06-14 19:55:00
4:15 PM,73.8,43.7,34,29.75,10.0,North,11.5,18.4,N/A,,Scattered Clouds,360,2013-06-14 20:15:00
4:35 PM,74.1,45.0,35,29.75,10.0,NW,12.7,21.9,N/A,,Scattered Clouds,320,2013-06-14 20:35:00
4:55 PM,73.8,46.6,38,29.76,10.0,WNW,9.2,16.1,N/A,,Scattered Clouds,300,2013-06-14 20:55:00
5:15 PM,73.4,47.7,40,29.76,10.0,NNW,13.8,17.3,N/A,,Scattered Clouds,340,2013-06-14 21:15:00
5:35 PM,72.5,45.0,37,29.76,10.0,NW,13.8,19.6,N/A,,Scattered Clouds,320,2013-06-14 21:35:00
5:55 PM,72.0,44.1,37,29.76,10.0,WNW,11.5,16.1,N/A,,Clear,300,2013-06-14 21:55:00
6:15 PM,71.6,44.2,37,29.76,10.0,NW,8.1,17.3,N/A,,Clear,320,2013-06-14 22:15:00
6:35 PM,71.2,44.4,38,29.77,10.0,NW,10.4,18.4,N/A,,Clear,320,2013-06-14 22:35:00
6:55 PM,70.9,46.8,42,29.78,10.0,WNW,12.7,16.1,N/A,,Clear,300,2013-06-14 22:55:00
7:15 PM,69.6,46.4,43,29.78,10.0,WNW,8.1,-,N/A,,Clear,300,2013-06-14 23:15:00
7:35 PM,68.2,47.1,47,29.79,10.0,WNW,10.4,16.1,N/A,,Clear,300,2013-06-14 23:35:00
7:55 PM,67.1,47.7,50,29.80,10.0,WNW,6.9,-,N/A,,Clear,290,2013-06-14 23:55:00
8:15 PM,66.2,48.9,54,29.79,10.0,WNW,9.2,-,N/A,,Clear,300,2013-06-15 00:15:00
8:35 PM,65.3,49.1,56,29.80,10.0,WNW,15.0,19.6,N/A,,Clear,290,2013-06-15 00:35:00
8:55 PM,64.2,46.4,52,29.80,10.0,WNW,8.1,-,N/A,,Clear,290,2013-06-15 00:55:00
9:15 PM,61.7,47.3,59,29.81,10.0,WNW,5.8,-,N/A,,Clear,290,2013-06-15 01:15:00
9:35 PM,61.2,48.7,64,29.82,10.0,WNW,5.8,-,N/A,,Clear,300,2013-06-15 01:35:00
9:55 PM,61.7,49.1,63,29.82,10.0,NW,8.1,-,N/A,,Clear,310,2013-06-15 01:55:00
10:15 PM,61.7,48.6,62,29.83,10.0,NW,5.8,-,N/A,,Clear,310,2013-06-15 02:15:00
10:35 PM,60.8,45.7,57,29.83,10.0,NW,5.8,-,N/A,,Clear,310,2013-06-15 02:35:00
10:55 PM,60.8,43.0,52,29.83,10.0,NW,5.8,-,N/A,,Clear,310,2013-06-15 02:55:00
11:15 PM,60.1,41.0,49,29.84,10.0,NW,5.8,-,N/A,,Clear,310,2013-06-15 03:15:00
11:35 PM,59.9,38.8,46,29.84,10.0,NW,4.6,-,N/A,,Clear,320,2013-06-15 03:35:00
11:55 PM,55.6,45.9,70,29.85,10.0,WSW,4.6,-,N/A,,Clear,240,2013-06-15 03:55:00